Tracking 30009 objects as of 7-Dec-2024
HD Live streaming from Space Station
objects crossing your sky now

STARLINK-30531

Track STARLINK-30531 now!
10-day predictions
STARLINK-30531 is classified as:


NORAD ID: 57998
Int'l Code: 2023-153H
Perigee: 564.9 km
Apogee: 567.5 km
Inclination: 43.0 °
Period: 95.8 minutes
Semi major axis: 6937 km
RCS: Unknown
Launch date: October 5, 2023
Source: United States (US)
Launch site: AIR FORCE EASTERN TEST RANGE (AFETR)
Your satellite tracking list
Your tracking list is empty




NASA's NSSDC Master Catalog

Two Line Element Set (TLE):
1 57998U 23153H   24342.15266675  .00003605  00000-0  28177-3 0  9997
2 57998  43.0043  34.6502 0001901 263.3768  96.6858 15.02538866 66053
Source of the keplerian elements: AFSPC